This is the latest recevied weather packets stored in our database for station/object DL1VED. If no packets are shown the sender has not sent any weather packets the latest 10 day(s).
| Time | Temp. | Humidity | Pressure | Rain* | Wind** | Luminosity | Snow |
|---|---|---|---|---|---|---|---|
| 1777774451 | 12.78° C | 59% | 1013.6 hPa | 0 mm | - | - | - |
| 1777773551 | 12.78° C | 59% | 1013.7 hPa | 0 mm | - | - | - |
| 1777772651 | 12.78° C | 58% | 1013.9 hPa | 0 mm | - | - | - |
| 1777771751 | 13.33° C | 57% | 1013.7 hPa | 0 mm | - | - | - |
| 1777770851 | 13.33° C | 56% | 1013.9 hPa | 0 mm | - | - | - |
| 1777769951 | 13.33° C | 56% | 1014 hPa | 0 mm | - | - | - |
| 1777769051 | 13.89° C | 55% | 1014 hPa | 0 mm | - | - | - |
| 1777768151 | 13.89° C | 54% | 1014.1 hPa | 0 mm | - | - | - |
| 1777767251 | 13.89° C | 53% | 1014.3 hPa | 0 mm | - | - | - |
| 1777766351 | 13.89° C | 53% | 1014.4 hPa | 0 mm | - | - | - |
| 1777765451 | 14.44° C | 52% | 1014.4 hPa | 0 mm | - | - | - |
| 1777764551 | 14.44° C | 52% | 1014.4 hPa | 0 mm | - | - | - |
| 1777763651 | 14.44° C | 52% | 1014.5 hPa | 0 mm | - | - | - |
| 1777762751 | 15° C | 50% | 1014.5 hPa | 0 mm | - | - | - |
| 1777761851 | 15° C | 50% | 1014.6 hPa | 0 mm | - | - | - |
| 1777760951 | 15° C | 49% | 1014.7 hPa | 0 mm | - | - | - |
| 1777760051 | 15.56° C | 47% | 1014.7 hPa | 0 mm | - | - | - |
| 1777759151 | 15.56° C | 46% | 1014.7 hPa | 0 mm | - | - | - |
| 1777758251 | 15.56° C | 48% | 1014.7 hPa | 0 mm | - | - | - |
| 1777757351 | 15.56° C | 48% | 1014.7 hPa | 0 mm | - | - | - |
| 1777756451 | 16.11° C | 48% | 1014.8 hPa | 0 mm | - | - | - |
| 1777755551 | 16.11° C | 47% | 1014.8 hPa | 0 mm | - | - | - |
| 1777754651 | 16.67° C | 46% | 1015 hPa | 0 mm | - | - | - |
| 1777753751 | 16.67° C | 47% | 1015 hPa | 0 mm | - | - | - |
| 1777752851 | 17.22° C | 46% | 1015 hPa | 0 mm | - | - | - |
* Rain latest hour (hover to see other rain measurements)
** Current wind speed in m/s (hover to see current wind gust speed)